Regional Weather Roundup
Issued by NWS Little Rock, AR

Home | Current Version | Previous Version | Graphics & Text | Print | Product List | Glossary On
Versions: 1 2 3 4 5 6 7 8 9 10 11 12 13 14 15 16 17 18 19 20 21 22 23 24 25 26 27 28 29 30 31 32 33
000
ASUS44 KLZK 181205
RWRLZK

WEATHER ROUNDUP FOR ARKANSAS
NATIONAL WEATHER SERVICE LITTLE ROCK AR
600 AM CST WED JAN 18 2017

NOTE: "FAIR" INDICATES FEW OR NO CLOUDS BELOW 12,000 FEET WITH NO
SIGNIFICANT WEATHER AND/OR OBSTRUCTIONS TO VISIBILITY.

ARZ001-003-010-029-181300-
NORTHWEST ARKANSAS

CITY           SKY/WX    TMP DP  RH WIND       PRES   REMARKS
FAYETTEVILLE   CLOUDY    32  32 100 CALM      30.17R FOG
6HR MIN TEMP:  30; 6HR MAX TEMP:  39;

FORT SMITH     LGT RAIN  42  38  85 CALM      30.18R
6HR MIN TEMP:  40; 6HR MAX TEMP:  43; 6HR PCP: TRACE;

HARRISON       FOG       37  37 100 CALM      30.18R VSB 1/2
6HR MIN TEMP:  35; 6HR MAX TEMP:  39;

BENTONVILLE    CLOUDY   N/A N/A N/A E5        30.17R VSB 1/4
ROGERS         FOG       35  35 100 NE5       30.18R VSB 1/4 WCI  31
6HR MIN TEMP:  34; 6HR MAX TEMP:  39;

SILOAM SPGS    CLEAR     34  32  93 CALM      30.17R
6HR MIN TEMP:  34; 6HR MAX TEMP:  39;

HIGHFILL       FOG       35  35 100 E6        30.16R VSB 1/4 WCI  30
6HR MIN TEMP:  32; 6HR MAX TEMP:  40;

SPRINGDALE     CLOUDY    36  36 100 NE5       30.18  FOG
$$

ARZ004-005-016-181300-
NORTH CENTRAL ARKANSAS

CITY           SKY/WX    TMP DP  RH WIND       PRES   REMARKS
BATESVILLE     CLOUDY    41  37  87 N3        30.21R
6HR MIN TEMP:  39; 6HR MAX TEMP:  41;

FLIPPIN        CLOUDY    39  34  81 N5        30.18R
6HR MIN TEMP:  39; 6HR MAX TEMP:  41;

MTN HOME       CLOUDY    37  37 100 CALM      30.18R
6HR MIN TEMP:  37; 6HR MAX TEMP:  40;

$$

ARZ040-041-181300-
WEST CENTRAL ARKANSAS

CITY           SKY/WX    TMP DP  RH WIND       PRES   REMARKS
MENA           CLOUDY    46  46 100 E3        30.16R
MOUNT IDA      LGT RAIN  45  44  97 CALM      30.14F FOG
6HR MIN TEMP:  45; 6HR MAX TEMP:  46; 6HR PCP:  0.06;

$$

ARZ009-017-025-026-028-181300-
NORTHEAST ARKANSAS

CITY           SKY/WX    TMP DP  RH WIND       PRES   REMARKS
CORNING        CLOUDY    41  39  93 NE7       30.22S
JONESBORO      CLOUDY    40  38  93 N3        30.20S
6HR MIN TEMP:  38; 6HR MAX TEMP:  42;

NEWPORT        MOCLDY    40  38  93 N6        30.20S
6HR MIN TEMP:  38; 6HR MAX TEMP:  42;

WALNUT RIDGE   CLOUDY    43  36  75 N6        30.21S
6HR MIN TEMP:  37; 6HR MAX TEMP:  43;

BLYTHEVILLE    CLOUDY    42  40  92 NE5       30.21R
6HR MIN TEMP:  39; 6HR MAX TEMP:  44;

$$

ARZ022-023-033-042-044-181300-
CENTRAL ARKANSAS

CITY           SKY/WX    TMP DP  RH WIND       PRES   REMARKS
LITTLE ROCK    LGT RAIN  45  43  93 E8        30.21R
6HR MIN TEMP:  44; 6HR MAX TEMP:  46; 6HR PCP: TRACE;

N LITTLE ROCK    N/A     44  41  91 E7        30.22
6HR MIN TEMP:  43; 6HR MAX TEMP:  45;

JACKSONVILLE   CLOUDY    44  41  89 E8        30.20R
6HR MIN TEMP:  44; 6HR MAX TEMP:  46; 6HR PCP: TRACE;

SEARCY         CLOUDY    42  40  92 N6        30.23R
6HR MIN TEMP:  40; 6HR MAX TEMP:  45;

HOT SPRINGS    LGT RAIN  46  45  96 N3        30.20S
6HR MIN TEMP:  46; 6HR MAX TEMP:  49; 6HR PCP:  0.01;

RUSSELLVILLE   CLOUDY    42  39  89 CALM      30.21R
6HR MIN TEMP:  40; 6HR MAX TEMP:  43;

CLINTON        CLOUDY    41  39  93 CALM      30.21R
$$

ARZ036-181300-
EAST ARKANSAS

CITY           SKY/WX    TMP DP  RH WIND       PRES   REMARKS
WEST MEMPHIS   MOCLDY    44  42  93 E3        30.19R
6HR MIN TEMP:  43; 6HR MAX TEMP:  47;

$$

ARZ050-053-066-070-073-181300-
SOUTHWEST ARKANSAS

CITY           SKY/WX    TMP DP  RH WIND       PRES   REMARKS
ARKADELPHIA    LGT RAIN  47  46  97 NE3       30.19R
6HR MIN TEMP:  47; 6HR MAX TEMP:  51; 6HR PCP:  0.30;

CAMDEN         RAIN      48  46  93 E3        30.16F
TEXARKANA      LGT RAIN  50  50 100 E7        30.11S
6HR MIN TEMP:  48; 6HR MAX TEMP:  50; 6HR PCP:  1.49;

EL DORADO      LGT RAIN  50  50 100 NE9       30.14F
6HR MIN TEMP:  50; 6HR MAX TEMP:  52; 6HR PCP:  0.20;

DE QUEEN       LGT RAIN  49  49 100 E7        30.12F FOG
6HR MIN TEMP:  48; 6HR MAX TEMP:  49; 6HR PCP:  0.08;

$$

ARZ056-057-069-181300-
SOUTHEAST ARKANSAS

CITY           SKY/WX    TMP DP  RH WIND       PRES   REMARKS
PINE BLUFF     RAIN      47  46  97 NE6       30.19R FOG
6HR MIN TEMP:  47; 6HR MAX TEMP:  50; 6HR PCP:  0.32;

STUTTGART      CLOUDY    46  37  71 NE3       30.21R
6HR MIN TEMP:  46; 6HR MAX TEMP:  48;

MONTICELLO     CLOUDY    50  47  89 N3        30.16S
6HR MIN TEMP:  50; 6HR MAX TEMP:  53; 6HR PCP:  0.01;


$$






USA.gov is the U.S. government's official web portal to all federal, state and local government web resources and services.